Location: Dal�� Lhota
(48.7500°N, 14.0167°E)
Time: 02:10:34
(UTC+00:00)

Cosmos 2279 Rocket - Pass Details

Date: 24 September 2020
Orbit: 963 x 979 km, 82.9° (Epoch: 29 October)

Event Time Altitude Azimuth Distance (km) Brightness Sun altitude
Exits shadow 19:12:58 34° 160° (SSE) 1,569 4.7 -22.5°
Maximum altitude 19:15:42 62° 93° (E) 1,098 3.9 -22.9°
Drops below altitude 10° 19:21:54 10° 15° (NNE) 2,743 6.5 -23.8°
Sets 19:24:26 0° 12° (NNE) 3,695 7.2 -24.2°
